Starlink 30820

operational
NORAD ID: 58190 Int'l Des: 2023-167 Owner: SPXS Country: US Constellation: starlink
LEOCIRCULAR

关于 Starlink 30820

正在加载描述...

实时位置

正在加载3D地球...

即将过境

高度历史

Altitude vs Time

uPlot chart will show altitude changes over time

两行轨道根数

1 58190U 23167R 26034.52858164 .00000734 00000-0 69395-4 0 9996
2 58190 43.0031 331.7989 0000996 273.4652 86.6077 15.02537643125816
Epoch: Feb 3, 2026 • Age: 11 hours

当前状态

高度 558.5 km
速度 7.59 km/s
星下点 17.67°N, 144.63°W
发射日期 Oct 30, 2023
运行时间 2.2 years
类型 internet

技术详情

分类 Payload
质量 730.00 kg
干质量 700.00 kg
总质量 730.00 kg
长度 0.30 m
直径 4.10 m
跨度 29.00 m
形状 Box + pan
制造商 SPXS
平台类型 Starlink V2M
阶段状态 In Orbit
所有者/国家 SPXS/US

大型星座

Loading constellations...